Year,Month,Day,Hour,Minute,Value (Times are PST for windspeed in km/hr)
2012,11,16,00,00,0.00
2012,11,16,00,01,0.00
2012,11,16,00,02,0.00
2012,11,16,00,03,0.00
2012,11,16,00,04,0.00
2012,11,16,00,05,0.00
2012,11,16,00,06,0.00
2012,11,16,00,07,0.00
2012,11,16,00,08,0.00
2012,11,16,00,09,0.00
2012,11,16,00,10,0.00
2012,11,16,00,11,0.00
2012,11,16,00,12,0.00
2012,11,16,00,13,0.00
2012,11,16,00,14,0.00
2012,11,16,00,15,0.00
2012,11,16,00,16,0.00
2012,11,16,00,17,0.00
2012,11,16,00,18,1.40
2012,11,16,00,19,0.10
2012,11,16,00,20,0.00
2012,11,16,00,21,0.00
2012,11,16,00,22,0.00
2012,11,16,00,23,0.00
2012,11,16,00,24,0.00
2012,11,16,00,25,0.00
2012,11,16,00,26,1.80
2012,11,16,00,27,4.60
2012,11,16,00,28,3.20
2012,11,16,00,29,1.90
2012,11,16,00,30,0.40
2012,11,16,00,31,0.00
2012,11,16,00,32,0.00
2012,11,16,00,33,0.00
2012,11,16,00,34,0.00
2012,11,16,00,35,0.00
2012,11,16,00,36,0.00
2012,11,16,00,37,0.00
2012,11,16,00,38,0.00
2012,11,16,00,39,0.00
2012,11,16,00,40,0.00
2012,11,16,00,41,0.00
2012,11,16,00,42,0.00
2012,11,16,00,43,0.00
2012,11,16,00,44,0.00
2012,11,16,00,45,0.00
2012,11,16,00,46,0.00
2012,11,16,00,47,0.00
2012,11,16,00,48,1.10
2012,11,16,00,49,4.10
2012,11,16,00,50,4.40
2012,11,16,00,51,3.80
2012,11,16,00,52,3.60
2012,11,16,00,53,4.40
2012,11,16,00,54,5.90
2012,11,16,00,55,5.90
2012,11,16,00,56,5.20
2012,11,16,00,57,4.40
2012,11,16,00,58,4.60
2012,11,16,00,59,5.50
2012,11,16,01,00,4.70
2012,11,16,01,01,4.00
2012,11,16,01,02,4.20
2012,11,16,01,03,4.30
2012,11,16,01,04,4.50
2012,11,16,01,05,3.70
2012,11,16,01,06,3.10
2012,11,16,01,07,2.50
2012,11,16,01,08,3.90
2012,11,16,01,09,5.60
2012,11,16,01,10,7.00
2012,11,16,01,11,6.40
2012,11,16,01,12,5.60
2012,11,16,01,13,4.40
2012,11,16,01,14,4.10
2012,11,16,01,15,3.50
2012,11,16,01,16,3.90
2012,11,16,01,17,2.20
2012,11,16,01,18,0.70
2012,11,16,01,19,0.00
2012,11,16,01,20,0.90
2012,11,16,01,21,0.90
2012,11,16,01,22,0.00
2012,11,16,01,23,1.60
2012,11,16,01,24,3.40
2012,11,16,01,25,3.00
2012,11,16,01,26,0.60
2012,11,16,01,27,0.00
2012,11,16,01,28,0.00
2012,11,16,01,29,0.80
2012,11,16,01,30,2.40
2012,11,16,01,31,3.50
2012,11,16,01,32,4.60
2012,11,16,01,33,3.40
2012,11,16,01,34,3.30
2012,11,16,01,35,3.10
2012,11,16,01,36,4.30
2012,11,16,01,37,4.40
2012,11,16,01,38,3.50
2012,11,16,01,39,3.50
2012,11,16,01,40,2.70
2012,11,16,01,41,3.30
2012,11,16,01,42,3.20
2012,11,16,01,43,3.30
2012,11,16,01,44,2.10
2012,11,16,01,45,2.20
2012,11,16,01,46,3.30
2012,11,16,01,47,2.20
2012,11,16,01,48,1.90
2012,11,16,01,49,1.70
2012,11,16,01,50,1.80
2012,11,16,01,51,0.00
2012,11,16,01,52,1.50
2012,11,16,01,53,2.70
2012,11,16,01,54,1.50
2012,11,16,01,55,0.00
2012,11,16,01,56,1.40
2012,11,16,01,57,3.40
2012,11,16,01,58,4.30
2012,11,16,01,59,3.90
2012,11,16,02,00,3.50
2012,11,16,02,01,3.00
2012,11,16,02,02,3.00
2012,11,16,02,03,4.20
2012,11,16,02,04,4.00
2012,11,16,02,05,3.40
2012,11,16,02,06,3.40
2012,11,16,02,07,3.20
2012,11,16,02,08,2.70
2012,11,16,02,09,3.80
2012,11,16,02,10,3.40
2012,11,16,02,11,3.50
2012,11,16,02,12,0.80
2012,11,16,02,13,0.00
2012,11,16,02,14,0.00
2012,11,16,02,15,0.00
2012,11,16,02,16,0.00
2012,11,16,02,17,4.40
2012,11,16,02,18,5.10
2012,11,16,02,19,2.90
2012,11,16,02,20,0.20
2012,11,16,02,21,0.50
2012,11,16,02,22,4.00
2012,11,16,02,23,4.70
2012,11,16,02,24,3.30
2012,11,16,02,25,0.50
2012,11,16,02,26,0.20
2012,11,16,02,27,0.00
2012,11,16,02,28,4.70
2012,11,16,02,29,5.20
2012,11,16,02,30,4.60
2012,11,16,02,31,4.10
2012,11,16,02,32,4.80
2012,11,16,02,33,6.20
2012,11,16,02,34,7.70
2012,11,16,02,35,9.80
2012,11,16,02,36,8.10
2012,11,16,02,37,5.50
2012,11,16,02,38,1.40
2012,11,16,02,39,1.50
2012,11,16,02,40,3.90
2012,11,16,02,41,1.00
2012,11,16,02,42,0.20
2012,11,16,02,43,2.50
2012,11,16,02,44,0.00
2012,11,16,02,45,0.00
2012,11,16,02,46,0.30
2012,11,16,02,47,0.00
2012,11,16,02,48,0.00
2012,11,16,02,49,0.00
2012,11,16,02,50,0.00
2012,11,16,02,51,0.00
2012,11,16,02,52,0.00
2012,11,16,02,53,0.00
2012,11,16,02,54,0.00
2012,11,16,02,55,0.00
2012,11,16,02,56,0.00
2012,11,16,02,57,0.00
2012,11,16,02,58,0.00
2012,11,16,02,59,0.00
2012,11,16,03,00,0.00
2012,11,16,03,01,0.00
2012,11,16,03,02,0.00
2012,11,16,03,03,0.00
2012,11,16,03,04,0.00
2012,11,16,03,05,2.50
2012,11,16,03,06,5.90
2012,11,16,03,07,5.90
2012,11,16,03,08,3.90
2012,11,16,03,09,1.70
2012,11,16,03,10,2.60
2012,11,16,03,11,3.00
2012,11,16,03,12,0.10
2012,11,16,03,13,0.00
2012,11,16,03,14,3.50
2012,11,16,03,15,3.40
2012,11,16,03,16,2.50
2012,11,16,03,17,0.00
2012,11,16,03,18,1.80
2012,11,16,03,19,0.20
2012,11,16,03,20,2.70
2012,11,16,03,21,0.40
2012,11,16,03,22,2.20
2012,11,16,03,23,2.90
2012,11,16,03,24,3.40
2012,11,16,03,25,3.10
2012,11,16,03,26,2.30
2012,11,16,03,27,0.20
2012,11,16,03,28,0.00
2012,11,16,03,29,0.00
2012,11,16,03,30,0.00
2012,11,16,03,31,0.60
2012,11,16,03,32,0.10
2012,11,16,03,33,0.00
2012,11,16,03,34,0.00
2012,11,16,03,35,0.00
2012,11,16,03,36,0.60
2012,11,16,03,37,1.60
2012,11,16,03,38,0.40
2012,11,16,03,39,0.00
2012,11,16,03,40,0.00
2012,11,16,03,41,1.00
2012,11,16,03,42,3.00
2012,11,16,03,43,3.10
2012,11,16,03,44,3.60
2012,11,16,03,45,3.50
2012,11,16,03,46,1.00
2012,11,16,03,47,0.00
2012,11,16,03,48,0.10
2012,11,16,03,49,0.00
2012,11,16,03,50,0.00
2012,11,16,03,51,0.00
2012,11,16,03,52,0.00
2012,11,16,03,53,0.00
2012,11,16,03,54,0.00
2012,11,16,03,55,0.00
2012,11,16,03,56,0.00
2012,11,16,03,57,0.00
2012,11,16,03,58,0.60
2012,11,16,03,59,0.70
2012,11,16,04,00,0.00
2012,11,16,04,01,0.00
2012,11,16,04,02,0.00
2012,11,16,04,03,0.00
2012,11,16,04,04,1.70
2012,11,16,04,05,3.10
2012,11,16,04,06,3.50
2012,11,16,04,07,4.90
2012,11,16,04,08,4.60
2012,11,16,04,09,3.00
2012,11,16,04,10,5.10
2012,11,16,04,11,6.60
2012,11,16,04,12,7.40
2012,11,16,04,13,8.10
2012,11,16,04,14,7.00
2012,11,16,04,15,6.80
2012,11,16,04,16,5.20
2012,11,16,04,17,3.90
2012,11,16,04,18,4.70
2012,11,16,04,19,5.00
2012,11,16,04,20,5.90
2012,11,16,04,21,6.00
2012,11,16,04,22,5.10
2012,11,16,04,23,3.80
2012,11,16,04,24,1.10
2012,11,16,04,25,0.00
2012,11,16,04,26,0.00
2012,11,16,04,27,2.80
2012,11,16,04,28,4.10
2012,11,16,04,29,4.00
2012,11,16,04,30,3.80
2012,11,16,04,31,4.20
2012,11,16,04,32,4.50
2012,11,16,04,33,5.10
2012,11,16,04,34,4.10
2012,11,16,04,35,3.60
2012,11,16,04,36,3.60
2012,11,16,04,37,0.50
2012,11,16,04,38,0.90
2012,11,16,04,39,1.70
2012,11,16,04,40,5.30
2012,11,16,04,41,5.50
2012,11,16,04,42,6.20
2012,11,16,04,43,6.20
2012,11,16,04,44,4.70
2012,11,16,04,45,2.50
2012,11,16,04,46,0.00
2012,11,16,04,47,0.00
2012,11,16,04,48,0.70
2012,11,16,04,49,3.00
2012,11,16,04,50,1.90
2012,11,16,04,51,0.20
2012,11,16,04,52,1.40
2012,11,16,04,53,0.00
2012,11,16,04,54,0.00
2012,11,16,04,55,0.50
2012,11,16,04,56,1.20
2012,11,16,04,57,0.00
2012,11,16,04,58,0.00
2012,11,16,04,59,0.00
2012,11,16,05,00,0.00
2012,11,16,05,01,0.00
2012,11,16,05,02,2.10
2012,11,16,05,03,3.60
2012,11,16,05,04,3.90
2012,11,16,05,05,1.20
2012,11,16,05,06,0.00
2012,11,16,05,07,0.00
2012,11,16,05,08,0.00
2012,11,16,05,09,0.00
2012,11,16,05,10,0.00
2012,11,16,05,11,0.00
2012,11,16,05,12,0.00
2012,11,16,05,13,0.00
2012,11,16,05,14,0.00
2012,11,16,05,15,0.00
2012,11,16,05,16,0.00
2012,11,16,05,17,0.00
2012,11,16,05,18,0.00
2012,11,16,05,19,0.90
2012,11,16,05,20,3.60
2012,11,16,05,21,2.20
2012,11,16,05,22,2.90
2012,11,16,05,23,0.50
2012,11,16,05,24,0.00
2012,11,16,05,25,0.10
2012,11,16,05,26,1.00
2012,11,16,05,27,0.80
2012,11,16,05,28,0.10
2012,11,16,05,29,0.00
2012,11,16,05,30,0.00
2012,11,16,05,31,0.00
2012,11,16,05,32,0.00
2012,11,16,05,33,0.20
2012,11,16,05,34,2.00
2012,11,16,05,35,0.20
2012,11,16,05,36,0.00
2012,11,16,05,37,0.00
2012,11,16,05,38,0.00
2012,11,16,05,39,0.00
2012,11,16,05,40,0.00
2012,11,16,05,41,0.00
2012,11,16,05,42,0.00
2012,11,16,05,43,0.00
2012,11,16,05,44,0.00
2012,11,16,05,45,0.00
2012,11,16,05,46,0.00
2012,11,16,05,47,0.00
2012,11,16,05,48,0.00
2012,11,16,05,49,0.00
2012,11,16,05,50,0.00
2012,11,16,05,51,0.00
2012,11,16,05,52,0.00
2012,11,16,05,53,0.00
2012,11,16,05,54,0.10
2012,11,16,05,55,0.00
2012,11,16,05,56,0.00
2012,11,16,05,57,0.00
2012,11,16,05,58,0.00
2012,11,16,05,59,0.00
2012,11,16,06,00,0.00
2012,11,16,06,01,0.00
2012,11,16,06,02,0.00
2012,11,16,06,03,0.00
2012,11,16,06,04,0.00
2012,11,16,06,05,0.00
2012,11,16,06,06,0.00
2012,11,16,06,07,0.00
2012,11,16,06,08,0.00
2012,11,16,06,09,0.00
2012,11,16,06,10,0.00
2012,11,16,06,11,0.00
2012,11,16,06,12,0.00
2012,11,16,06,13,0.00
2012,11,16,06,14,0.00
2012,11,16,06,15,0.00
2012,11,16,06,16,0.00
2012,11,16,06,17,0.00
2012,11,16,06,18,0.00
2012,11,16,06,19,0.00
2012,11,16,06,20,0.00
2012,11,16,06,21,0.00
2012,11,16,06,22,0.00
2012,11,16,06,23,0.00
2012,11,16,06,24,0.00
2012,11,16,06,25,0.00
2012,11,16,06,26,0.00
2012,11,16,06,27,0.00
2012,11,16,06,28,0.00
2012,11,16,06,29,0.00
2012,11,16,06,30,0.00
2012,11,16,06,31,0.00
2012,11,16,06,32,0.00
2012,11,16,06,33,0.40
2012,11,16,06,34,3.10
2012,11,16,06,35,3.00
2012,11,16,06,36,3.40
2012,11,16,06,37,5.60
2012,11,16,06,38,11.90
2012,11,16,06,39,10.20
2012,11,16,06,40,8.00
2012,11,16,06,41,6.80
2012,11,16,06,42,1.40
2012,11,16,06,43,2.70
2012,11,16,06,44,2.10
2012,11,16,06,45,2.30
2012,11,16,06,46,2.60
2012,11,16,06,47,4.10
2012,11,16,06,48,2.00
2012,11,16,06,49,0.30
2012,11,16,06,50,2.30
2012,11,16,06,51,8.40
2012,11,16,06,52,2.40
2012,11,16,06,53,9.30
2012,11,16,06,54,3.60
2012,11,16,06,55,4.20
2012,11,16,06,56,1.90
2012,11,16,06,57,0.20
2012,11,16,06,58,2.90
2012,11,16,06,59,8.10
2012,11,16,07,00,4.90
2012,11,16,07,01,5.20
2012,11,16,07,02,6.40
2012,11,16,07,03,7.20
2012,11,16,07,04,6.80
2012,11,16,07,05,5.90
2012,11,16,07,06,5.80
2012,11,16,07,07,6.40
2012,11,16,07,08,1.90
2012,11,16,07,09,3.10
2012,11,16,07,10,6.40
2012,11,16,07,11,5.40
2012,11,16,07,12,6.00
2012,11,16,07,13,7.10
2012,11,16,07,14,6.50
2012,11,16,07,15,4.20
2012,11,16,07,16,5.80
2012,11,16,07,17,7.00
2012,11,16,07,18,6.30
2012,11,16,07,19,4.70
2012,11,16,07,20,3.90
2012,11,16,07,21,5.20
2012,11,16,07,22,1.30
2012,11,16,07,23,0.00
2012,11,16,07,24,2.30
2012,11,16,07,25,1.50
2012,11,16,07,26,2.30
2012,11,16,07,27,1.50
2012,11,16,07,28,2.70
2012,11,16,07,29,1.00
2012,11,16,07,30,0.60
2012,11,16,07,31,3.90
2012,11,16,07,32,3.70
2012,11,16,07,33,4.20
2012,11,16,07,34,3.20
2012,11,16,07,35,2.00
2012,11,16,07,36,2.30
2012,11,16,07,37,4.10
2012,11,16,07,38,5.50
2012,11,16,07,39,2.80
2012,11,16,07,40,0.40
2012,11,16,07,41,0.60
2012,11,16,07,42,0.00
2012,11,16,07,43,0.20
2012,11,16,07,44,1.20
2012,11,16,07,45,2.50
2012,11,16,07,46,0.40
2012,11,16,07,47,5.70
2012,11,16,07,48,3.00
2012,11,16,07,49,1.10
2012,11,16,07,50,0.90
2012,11,16,07,51,4.00
2012,11,16,07,52,0.60
2012,11,16,07,53,1.80
2012,11,16,07,54,3.10
2012,11,16,07,55,2.30
2012,11,16,07,56,2.00
2012,11,16,07,57,4.10
2012,11,16,07,58,4.60
2012,11,16,07,59,3.10
2012,11,16,08,00,4.70
2012,11,16,08,01,5.10
2012,11,16,08,02,4.20
2012,11,16,08,03,2.80
2012,11,16,08,04,0.00
2012,11,16,08,05,2.70
2012,11,16,08,06,4.50
2012,11,16,08,07,2.10
2012,11,16,08,08,4.10
2012,11,16,08,09,3.50
2012,11,16,08,10,3.10
2012,11,16,08,11,4.50
2012,11,16,08,12,8.30
2012,11,16,08,13,5.50
2012,11,16,08,14,3.60
2012,11,16,08,15,3.60
2012,11,16,08,16,4.50
2012,11,16,08,17,4.20
2012,11,16,08,18,4.10
2012,11,16,08,19,4.30
2012,11,16,08,20,0.50
2012,11,16,08,21,2.80
2012,11,16,08,22,5.80
2012,11,16,08,23,0.20
2012,11,16,08,24,0.20
2012,11,16,08,25,3.60
2012,11,16,08,26,0.20
2012,11,16,08,27,0.10
2012,11,16,08,28,1.70
2012,11,16,08,29,1.70
2012,11,16,08,30,0.00
2012,11,16,08,31,0.70
2012,11,16,08,32,3.60
2012,11,16,08,33,0.30
2012,11,16,08,34,3.50
2012,11,16,08,35,5.60
2012,11,16,08,36,6.10
2012,11,16,08,37,4.00
2012,11,16,08,38,4.00
2012,11,16,08,39,2.40
2012,11,16,08,40,0.80
2012,11,16,08,41,0.00
2012,11,16,08,42,0.00
2012,11,16,08,43,0.20
2012,11,16,08,44,3.50
2012,11,16,08,45,1.00
2012,11,16,08,46,2.00
2012,11,16,08,47,2.10
2012,11,16,08,48,4.20
2012,11,16,08,49,3.60
2012,11,16,08,50,4.10
2012,11,16,08,51,4.00
2012,11,16,08,52,5.30
2012,11,16,08,53,5.40
2012,11,16,08,54,4.90
2012,11,16,08,55,5.20
2012,11,16,08,56,2.60
2012,11,16,08,57,4.00
2012,11,16,08,58,5.60
2012,11,16,08,59,5.80
2012,11,16,09,00,3.90
2012,11,16,09,01,2.50
2012,11,16,09,02,3.70
2012,11,16,09,03,3.50
2012,11,16,09,04,2.10
2012,11,16,09,05,2.40
2012,11,16,09,06,0.70
2012,11,16,09,07,0.00
2012,11,16,09,08,3.90
2012,11,16,09,09,3.40
2012,11,16,09,10,2.30
2012,11,16,09,11,2.10
2012,11,16,09,12,1.50
2012,11,16,09,13,4.70
2012,11,16,09,14,4.00
2012,11,16,09,15,5.70
2012,11,16,09,16,4.40
2012,11,16,09,17,5.80
2012,11,16,09,18,4.20
2012,11,16,09,19,7.60
2012,11,16,09,20,6.90
2012,11,16,09,21,7.40
2012,11,16,09,22,7.60
2012,11,16,09,23,5.70
2012,11,16,09,24,5.90
2012,11,16,09,25,6.50
2012,11,16,09,26,5.90
2012,11,16,09,27,7.40
2012,11,16,09,28,4.90
2012,11,16,09,29,8.50
2012,11,16,09,30,7.30
2012,11,16,09,31,3.40
2012,11,16,09,32,1.90
2012,11,16,09,33,1.00
2012,11,16,09,34,8.20
2012,11,16,09,35,6.50
2012,11,16,09,36,4.50
2012,11,16,09,37,1.10
2012,11,16,09,38,1.80
2012,11,16,09,39,1.40
2012,11,16,09,40,0.70
2012,11,16,09,41,1.90
2012,11,16,09,42,7.00
2012,11,16,09,43,2.20
2012,11,16,09,44,2.20
2012,11,16,09,45,4.40
2012,11,16,09,46,6.30
2012,11,16,09,47,2.30
2012,11,16,09,48,0.40
2012,11,16,09,49,4.10
2012,11,16,09,50,4.30
2012,11,16,09,51,2.70
2012,11,16,09,52,5.10
2012,11,16,09,53,2.20
2012,11,16,09,54,4.60
2012,11,16,09,55,1.40
2012,11,16,09,56,3.90
2012,11,16,09,57,0.80
2012,11,16,09,58,1.80
2012,11,16,09,59,4.60
2012,11,16,10,00,8.00
2012,11,16,10,01,4.60
2012,11,16,10,02,1.90
2012,11,16,10,03,3.50
2012,11,16,10,04,5.20
2012,11,16,10,05,4.10
2012,11,16,10,06,6.80
2012,11,16,10,07,5.70
2012,11,16,10,08,5.90
2012,11,16,10,09,6.40
2012,11,16,10,10,10.90
2012,11,16,10,11,7.30
2012,11,16,10,12,5.60
2012,11,16,10,13,4.20
2012,11,16,10,14,6.70
2012,11,16,10,15,6.00
2012,11,16,10,16,7.60
2012,11,16,10,17,11.20
2012,11,16,10,18,7.60
2012,11,16,10,19,12.60
2012,11,16,10,20,8.90
2012,11,16,10,21,7.20
2012,11,16,10,22,8.10
2012,11,16,10,23,14.30
2012,11,16,10,24,13.40
2012,11,16,10,25,10.10
2012,11,16,10,26,12.10
2012,11,16,10,27,10.70
2012,11,16,10,28,10.60
2012,11,16,10,29,10.50
2012,11,16,10,30,12.30
2012,11,16,10,31,13.80
2012,11,16,10,32,14.20
2012,11,16,10,33,9.20
2012,11,16,10,34,6.00
2012,11,16,10,35,6.00
2012,11,16,10,36,8.00
2012,11,16,10,37,9.20
2012,11,16,10,38,8.60
2012,11,16,10,39,8.90
2012,11,16,10,40,11.10
2012,11,16,10,41,9.30
2012,11,16,10,42,10.00
2012,11,16,10,43,10.50
2012,11,16,10,44,10.80
2012,11,16,10,45,10.50
2012,11,16,10,46,12.10
2012,11,16,10,47,9.70
2012,11,16,10,48,13.10
2012,11,16,10,49,9.30
2012,11,16,10,50,8.30
2012,11,16,10,51,12.20
2012,11,16,10,52,13.60
2012,11,16,10,53,12.70
2012,11,16,10,54,11.40
2012,11,16,10,55,13.00
2012,11,16,10,56,10.90
2012,11,16,10,57,12.90
2012,11,16,10,58,16.00
2012,11,16,10,59,12.60
2012,11,16,11,00,9.60
2012,11,16,11,01,12.50
2012,11,16,11,02,13.00
2012,11,16,11,03,18.30
2012,11,16,11,04,14.60
2012,11,16,11,05,12.00
2012,11,16,11,06,13.00
2012,11,16,11,07,10.80
2012,11,16,11,08,12.10
2012,11,16,11,09,14.20
2012,11,16,11,10,11.40
2012,11,16,11,11,13.60
2012,11,16,11,12,13.00
2012,11,16,11,13,14.10
2012,11,16,11,14,13.40
2012,11,16,11,15,14.10
2012,11,16,11,16,10.00
2012,11,16,11,17,15.70
2012,11,16,11,18,18.50
2012,11,16,11,19,15.00
2012,11,16,11,20,19.50
2012,11,16,11,21,9.30
2012,11,16,11,22,14.40
2012,11,16,11,23,14.00
2012,11,16,11,24,13.80
2012,11,16,11,25,13.50
2012,11,16,11,26,12.80
2012,11,16,11,27,9.90
2012,11,16,11,28,12.20
2012,11,16,11,29,14.90
2012,11,16,11,30,14.60
2012,11,16,11,31,15.20
2012,11,16,11,32,15.40
2012,11,16,11,33,18.90
2012,11,16,11,34,18.00
2012,11,16,11,35,16.20
2012,11,16,11,36,15.30
2012,11,16,11,37,15.60
2012,11,16,11,38,15.20
2012,11,16,11,39,16.20
2012,11,16,11,40,18.10
2012,11,16,11,41,14.70
2012,11,16,11,42,18.10
2012,11,16,11,43,16.90
2012,11,16,11,44,13.60
2012,11,16,11,45,12.60
2012,11,16,11,46,10.80
2012,11,16,11,47,17.40
2012,11,16,11,48,14.10
2012,11,16,11,49,9.30
2012,11,16,11,50,14.60
2012,11,16,11,51,16.90
2012,11,16,11,52,14.30
2012,11,16,11,53,14.30
2012,11,16,11,54,17.40
2012,11,16,11,55,18.90
2012,11,16,11,56,17.80
2012,11,16,11,57,10.70
2012,11,16,11,58,15.10
2012,11,16,11,59,11.30
2012,11,16,12,00,18.20
2012,11,16,12,01,21.50
2012,11,16,12,02,13.40
2012,11,16,12,03,15.30
2012,11,16,12,04,15.40
2012,11,16,12,05,14.20
2012,11,16,12,06,13.90
2012,11,16,12,07,16.90
2012,11,16,12,08,12.70
2012,11,16,12,09,15.50
2012,11,16,12,10,15.70
2012,11,16,12,11,15.80
2012,11,16,12,12,10.90
2012,11,16,12,13,10.70
2012,11,16,12,14,15.20
2012,11,16,12,15,9.20
2012,11,16,12,16,9.20
2012,11,16,12,17,13.20
2012,11,16,12,18,13.40
2012,11,16,12,19,10.30
2012,11,16,12,20,13.30
2012,11,16,12,21,15.80
2012,11,16,12,22,10.10
2012,11,16,12,23,12.90
2012,11,16,12,24,11.10
2012,11,16,12,25,17.40
2012,11,16,12,26,16.30
2012,11,16,12,27,15.40
2012,11,16,12,28,12.50
2012,11,16,12,29,15.70
2012,11,16,12,30,13.60
2012,11,16,12,31,16.90
2012,11,16,12,32,15.50
2012,11,16,12,33,15.70
2012,11,16,12,34,20.10
2012,11,16,12,35,17.70
2012,11,16,12,36,13.10
2012,11,16,12,37,14.90
2012,11,16,12,38,17.30
2012,11,16,12,39,18.40
2012,11,16,12,40,20.70
2012,11,16,12,41,19.10
2012,11,16,12,42,15.10
2012,11,16,12,43,16.70
2012,11,16,12,44,11.10
2012,11,16,12,45,12.40
2012,11,16,12,46,15.90
2012,11,16,12,47,19.30
2012,11,16,12,48,19.40
2012,11,16,12,49,12.20
2012,11,16,12,50,16.30
2012,11,16,12,51,13.40
2012,11,16,12,52,16.90
2012,11,16,12,53,14.80
2012,11,16,12,54,16.70
2012,11,16,12,55,14.80
2012,11,16,12,56,14.50
2012,11,16,12,57,17.30
2012,11,16,12,58,17.40
2012,11,16,12,59,12.70
2012,11,16,13,00,14.70
2012,11,16,13,01,13.60
2012,11,16,13,02,16.90
2012,11,16,13,03,11.10
2012,11,16,13,04,11.40
2012,11,16,13,05,8.50
2012,11,16,13,06,7.00
2012,11,16,13,07,13.40
2012,11,16,13,08,13.00
2012,11,16,13,09,10.90
2012,11,16,13,10,15.80
2012,11,16,13,11,8.50
2012,11,16,13,12,15.80
2012,11,16,13,13,10.90
2012,11,16,13,14,9.60
2012,11,16,13,15,10.20
2012,11,16,13,16,11.40
2012,11,16,13,17,14.00
2012,11,16,13,18,11.10
2012,11,16,13,19,11.30
2012,11,16,13,20,15.00
2012,11,16,13,21,12.00
2012,11,16,13,22,14.90
2012,11,16,13,23,12.60
2012,11,16,13,24,19.80
2012,11,16,13,25,19.10
2012,11,16,13,26,11.70
2012,11,16,13,27,13.20
2012,11,16,13,28,12.40
2012,11,16,13,29,10.30
2012,11,16,13,30,14.90
2012,11,16,13,31,15.10
2012,11,16,13,32,16.60
2012,11,16,13,33,14.10
2012,11,16,13,34,8.70
2012,11,16,13,35,12.60
2012,11,16,13,36,11.30
2012,11,16,13,37,14.60
2012,11,16,13,38,15.00
2012,11,16,13,39,11.00
2012,11,16,13,40,15.10
2012,11,16,13,41,10.50
2012,11,16,13,42,12.60
2012,11,16,13,43,13.00
2012,11,16,13,44,13.40
2012,11,16,13,45,12.30
2012,11,16,13,46,12.60
2012,11,16,13,47,13.00
2012,11,16,13,48,14.00
2012,11,16,13,49,19.10
2012,11,16,13,50,15.30
2012,11,16,13,51,14.20
2012,11,16,13,52,10.10
2012,11,16,13,53,10.10
2012,11,16,13,54,15.10
2012,11,16,13,55,15.50
2012,11,16,13,56,14.90
2012,11,16,13,57,14.60
2012,11,16,13,58,17.80
2012,11,16,13,59,21.70
2012,11,16,14,00,16.70
2012,11,16,14,01,16.80
2012,11,16,14,02,16.90
2012,11,16,14,03,16.40
2012,11,16,14,04,17.70
2012,11,16,14,05,17.40
2012,11,16,14,06,14.60
2012,11,16,14,07,13.10
2012,11,16,14,08,12.50
2012,11,16,14,09,13.00
2012,11,16,14,10,12.20
2012,11,16,14,11,16.10
2012,11,16,14,12,11.70
2012,11,16,14,13,15.50
2012,11,16,14,14,16.60
2012,11,16,14,15,12.90
2012,11,16,14,16,13.60
2012,11,16,14,17,16.70
2012,11,16,14,18,20.60
2012,11,16,14,19,20.70
2012,11,16,14,20,18.10
2012,11,16,14,21,18.40
2012,11,16,14,22,17.50
2012,11,16,14,23,19.40
2012,11,16,14,24,15.80
2012,11,16,14,25,11.70
2012,11,16,14,26,14.40
2012,11,16,14,27,19.20
2012,11,16,14,28,14.60
2012,11,16,14,29,11.10
2012,11,16,14,30,13.70
2012,11,16,14,31,9.10
2012,11,16,14,32,10.20
2012,11,16,14,33,12.70
2012,11,16,14,34,9.10
2012,11,16,14,35,12.30
2012,11,16,14,36,15.40
2012,11,16,14,37,14.60
2012,11,16,14,38,12.20
2012,11,16,14,39,7.70
2012,11,16,14,40,7.30
2012,11,16,14,41,9.10
2012,11,16,14,42,13.30
2012,11,16,14,43,13.20
2012,11,16,14,44,12.90
2012,11,16,14,45,15.60
2012,11,16,14,46,12.90
2012,11,16,14,47,8.30
2012,11,16,14,48,6.40
2012,11,16,14,49,6.40
2012,11,16,14,50,6.40
2012,11,16,14,51,6.40
2012,11,16,14,52,13.30
2012,11,16,14,53,9.30
2012,11,16,14,54,11.10
2012,11,16,14,55,10.70
2012,11,16,14,56,14.00
2012,11,16,14,57,7.60
2012,11,16,14,58,10.00
2012,11,16,14,59,9.30
2012,11,16,15,00,8.40
2012,11,16,15,01,12.60
2012,11,16,15,02,17.50
2012,11,16,15,03,15.00
2012,11,16,15,04,11.40
2012,11,16,15,05,13.00
2012,11,16,15,06,13.40
2012,11,16,15,07,18.10
2012,11,16,15,08,14.60
2012,11,16,15,09,15.50
2012,11,16,15,10,16.30
2012,11,16,15,11,14.70
2012,11,16,15,12,13.50
2012,11,16,15,13,10.20
2012,11,16,15,14,11.30
2012,11,16,15,15,18.20
2012,11,16,15,16,10.70
2012,11,16,15,17,14.70
2012,11,16,15,18,11.80
2012,11,16,15,19,9.60
2012,11,16,15,20,16.60
2012,11,16,15,21,13.60
2012,11,16,15,22,11.60
2012,11,16,15,23,15.30
2012,11,16,15,24,14.30
2012,11,16,15,25,15.50
2012,11,16,15,26,11.30
2012,11,16,15,27,12.60
2012,11,16,15,28,18.40
2012,11,16,15,29,18.30
2012,11,16,15,30,18.10
2012,11,16,15,31,14.10
2012,11,16,15,32,12.60
2012,11,16,15,33,11.90
2012,11,16,15,34,16.60
2012,11,16,15,35,18.40
2012,11,16,15,36,19.70
2012,11,16,15,37,17.90
2012,11,16,15,38,11.00
2012,11,16,15,39,17.60
2012,11,16,15,40,14.30
2012,11,16,15,41,17.60
2012,11,16,15,42,8.80
2012,11,16,15,43,8.60
2012,11,16,15,44,10.70
2012,11,16,15,45,13.80
2012,11,16,15,46,11.00
2012,11,16,15,47,18.30
2012,11,16,15,48,15.00
2012,11,16,15,49,15.20
2012,11,16,15,50,15.50
2012,11,16,15,51,21.50
2012,11,16,15,52,15.90
2012,11,16,15,53,14.10
2012,11,16,15,54,17.50
2012,11,16,15,55,17.40
2012,11,16,15,56,19.50
2012,11,16,15,57,16.30
2012,11,16,15,58,15.00
2012,11,16,15,59,11.90
2012,11,16,16,00,13.80
2012,11,16,16,01,18.90
2012,11,16,16,02,18.50
2012,11,16,16,03,16.70
2012,11,16,16,04,16.20
2012,11,16,16,05,11.30
2012,11,16,16,06,11.30
2012,11,16,16,07,13.80
2012,11,16,16,08,11.30
2012,11,16,16,09,19.80
2012,11,16,16,10,17.80
2012,11,16,16,11,14.60
2012,11,16,16,12,12.20
2012,11,16,16,13,17.10
2012,11,16,16,14,15.30
2012,11,16,16,15,11.50
2012,11,16,16,16,16.50
2012,11,16,16,17,19.70
2012,11,16,16,18,14.10
2012,11,16,16,19,12.70
2012,11,16,16,20,16.80
2012,11,16,16,21,13.80
2012,11,16,16,22,10.40
2012,11,16,16,23,16.70
2012,11,16,16,24,10.30
2012,11,16,16,25,16.70
2012,11,16,16,26,10.80
2012,11,16,16,27,20.60
2012,11,16,16,28,16.10
2012,11,16,16,29,14.70
2012,11,16,16,30,14.20
2012,11,16,16,31,16.40
2012,11,16,16,32,12.60
2012,11,16,16,33,15.00
2012,11,16,16,34,9.10
2012,11,16,16,35,13.60
2012,11,16,16,36,13.40
2012,11,16,16,37,13.80
2012,11,16,16,38,19.10
2012,11,16,16,39,16.70
2012,11,16,16,40,10.90
2012,11,16,16,41,15.40
2012,11,16,16,42,14.70
2012,11,16,16,43,15.10
2012,11,16,16,44,9.90
2012,11,16,16,45,7.50
2012,11,16,16,46,10.50
2012,11,16,16,47,11.70
2012,11,16,16,48,10.90
2012,11,16,16,49,12.50
2012,11,16,16,50,13.00
2012,11,16,16,51,8.90
2012,11,16,16,52,13.40
2012,11,16,16,53,13.10
2012,11,16,16,54,10.80
2012,11,16,16,55,15.70
2012,11,16,16,56,11.50
2012,11,16,16,57,11.80
2012,11,16,16,58,10.40
2012,11,16,16,59,12.10
2012,11,16,17,00,11.70
2012,11,16,17,01,6.50
2012,11,16,17,02,5.00
2012,11,16,17,03,9.00
2012,11,16,17,04,5.50
2012,11,16,17,05,10.10
2012,11,16,17,06,8.90
2012,11,16,17,07,6.80
2012,11,16,17,08,7.30
2012,11,16,17,09,11.60
2012,11,16,17,10,9.40
2012,11,16,17,11,9.00
2012,11,16,17,12,9.10
2012,11,16,17,13,12.50
2012,11,16,17,14,11.60
2012,11,16,17,15,13.40
2012,11,16,17,16,8.30
2012,11,16,17,17,10.30
2012,11,16,17,18,11.50
2012,11,16,17,19,11.20
2012,11,16,17,20,16.70
2012,11,16,17,21,12.70
2012,11,16,17,22,12.20
2012,11,16,17,23,13.90
2012,11,16,17,24,16.30
2012,11,16,17,25,8.10
2012,11,16,17,26,10.50
2012,11,16,17,27,15.50
2012,11,16,17,28,8.40
2012,11,16,17,29,11.50
2012,11,16,17,30,9.00
2012,11,16,17,31,9.90
2012,11,16,17,32,8.90
2012,11,16,17,33,12.20
2012,11,16,17,34,16.00
2012,11,16,17,35,18.70
2012,11,16,17,36,11.20
2012,11,16,17,37,13.00
2012,11,16,17,38,7.90
2012,11,16,17,39,10.10
2012,11,16,17,40,10.30
2012,11,16,17,41,5.60
2012,11,16,17,42,9.80
2012,11,16,17,43,9.00
2012,11,16,17,44,10.10
2012,11,16,17,45,11.60
2012,11,16,17,46,11.20
2012,11,16,17,47,18.20
2012,11,16,17,48,13.30